Probability
39 35 48 65 61 65 52 48 42 45 48 55 52 42 42 32 23 23 19 13 19 16 16 13 10 6 6 10 10 6 6 6 3 3 3 3 0 0 0 0 0 0 0
39 48 48 58 71 61 61 58 45 58 55 58 48 42 35 32 19 26 26 19 16 19 19 13 6 6 6 6 6 6 6 6 3 3 3 0 0 0 0 0 0 0 0
48 52 52 58 65 68 58 58 58 52 52 52 48 42 26 35 32 23 19 23 19 19 23 16 6 6 6 10 3 6 6 6 6 0 0 0 0 0 0 0 0 0 0
55 45 48 58 68 68 71 55 52 58 48 45 45 39 32 26 26 16 16 6 16 23 19 13 16 13 13 10 10 6 6 3 3 0 0 0 0 0 0 0 0 0 0
58 55 52 61 65 61 61 48 52 55 55 45 42 32 23 26 19 6 13 10 13 13 13 13 13 13 13 13 13 13 6 6 3 3 0 0 0 0 0 0 0 0 0
58 52 61 68 71 61 52 61 61 52 48 42 35 35 23 19 23 13 6 6 10 10 16 16 10 10 13 13 13 10 6 3 3 3 0 0 0 0 0 0 0 0 0
61 61 58 61 65 58 61 55 55 58 45 42 42 35 29 23 19 16 10 13 10 13 13 16 6 6 6 6 6 6 10 6 6 6 3 3 3 0 0 0 0 0 0
58 58 61 58 55 52 61 58 55 55 55 42 39 35 29 26 19 16 16 13 13 13 6 10 6 10 10 13 6 6 10 10 10 10 3 3 3 3 3 3 3 3 0
61 58 58 55 45 48 52 55 52 52 48 45 32 26 29 26 23 23 23 16 10 10 10 10 6 6 10 13 10 6 6 10 6 6 6 6 10 6 3 3 3 3 3
61 58 52 45 45 42 48 48 45 45 48 35 35 35 32 26 23 23 16 16 16 13 13 13 13 13 13 19 10 6 10 6 6 6 6 3 3 3 3 3 3 3 3
61 55 52 45 45 48 42 35 39 39 35 35 32 35 39 29 26 19 19 13 16 13 10 10 13 13 10 10 10 6 6 6 0 0 0 0 0 0 0 0 0 0 3
61 61 48 48 45 45 35 35 32 35 32 32 32 26 26 19 19 19 19 16 16 13 13 13 13 10 13 6 6 0 6 3 6 0 0 0 0 0 0 0 0 0 0
52 55 48 52 48 45 39 32 29 32 32 26 29 23 19 19 19 19 19 19 13 13 6 6 6 3 3 6 3 0 0 0 0 0 0 0 0 0 0 0 0 0 0
58 61 48 48 48 42 29 32 32 32 26 26 23 23 19 19 19 19 16 10 10 10 10 6 6 6 6 6 6 0 0 0 0 0 0 0 0 0 0 0 0 0 0
61 58 48 48 45 32 29 35 32 29 29 26 23 23 23 23 16 13 10 10 10 10 6 6 6 6 6 6 3 3 0 0 0 0 0 0 0 0 0 0 0 0 0
61 55 52 45 42 29 29 23 23 23 26 19 19 16 13 13 13 10 6 6 3 3 3 6 6 6 6 6 3 3 3 0 0 0 0 0 0 0 0 0 0 0 0
65 55 55 52 32 23 19 26 23 26 23 19 13 13 13 13 13 6 6 6 3 3 3 3 3 3 3 3 3 3 0 0 0 0 0 0 0 0 0 0 0 0 0
61 52 55 48 35 29 19 23 23 23 16 13 13 13 13 13 6 3 3 0 0 0 3 3 3 3 3 3 3 0 0 0 0 0 0 0 0 0 0 0 0 0 0
58 52 45 52 39 32 26 19 19 10 10 10 10 10 10 3 3 3 0 0 0 0 0 0 0 0 0 0 0 0 0 0 0 0 0 0 0 0 0 0 0 0 0
48 52 39 39 29 23 23 13 10 6 10 10 10 10 3 0 0 0 0 0 0 0 0 0 0 0 0 0 0 0 0 0 0 0 0 0 0 0 0 0 0 0 0
45 35 32 26 23 16 16 16 13 6 6 6 0 0 0 0 0 0 0 0 0 0 0 0 0 0 0 0 0 0 0 0 0 0 0 0 0 0 0 0 0 0 0
45 32 29 19 16 16 13 10 10 10 3 3 0 0 0 0 0 0 0 0 0 0 0 0 0 0 0 0 0 0 0 0 0 0 0 0 0 0 0 0 0 0 0
39 29 23 16 16 13 10 10 10 6 3 0 0 0 0 0 0 0 0 0 0 0 0 0 0 0 0 0 0 0 0 0 0 0 0 0 0 0 0 0 0 0 0
26 26 26 19 16 10 13 10 10 3 3 0 0 0 0 0 0 0 0 0 0 0 0 0 0 0 0 0 0 0 0 0 0 0 0 0 0 0 0 0 0 0 0
23 26 19 19 6 6 6 6 6 3 3 3 0 0 0 0 0 0 0 0 0 0 0 0 0 0 0 0 0 0 0 0 0 0 0 0 0 0 0 0 0 0 0
19 19 16 6 0 3 3 3 3 3 3 3 3 0 0 0 0 0 0 0 0 0 0 0 0 0 0 0 0 0 0 0 0 0 0 0 0 0 0 0 0 0 0
Height
5926 5925 5923 5922 5920 5918 5916 5914 5913 5911 5910 5909 5908 5907 5906 5905 5904 5904 5904 5904 5904 5904 5904 5903 5903 5903 5904 5903 5903 5904 5904 5904 5904 5903 5903 5903 5902 5902 5901 5901 5900 5899 5898
5926 5925 5923 5921 5920 5918 5916 5914 5912 5911 5909 5908 5907 5906 5905 5904 5903 5903 5902 5902 5902 5902 5902 5902 5902 5902 5902 5902 5902 5902 5902 5902 5902 5902 5901 5901 5901 5900 5899 5899 5898 5898 5897
5926 5925 5923 5921 5920 5918 5916 5914 5912 5910 5908 5907 5906 5905 5904 5903 5902 5901 5901 5900 5900 5900 5900 5900 5900 5900 5900 5900 5900 5900 5900 5900 5900 5899 5899 5898 5898 5898 5897 5896 5896 5895 5895
5927 5924 5922 5921 5919 5917 5915 5913 5912 5909 5908 5906 5905 5904 5903 5901 5900 5899 5899 5899 5899 5899 5899 5899 5899 5898 5898 5899 5898 5898 5898 5897 5897 5896 5896 5896 5895 5895 5894 5893 5893 5892 5891
5926 5925 5922 5921 5919 5917 5915 5913 5911 5909 5907 5905 5904 5903 5901 5900 5899 5898 5898 5897 5897 5897 5897 5897 5897 5897 5896 5896 5896 5896 5895 5895 5894 5893 5893 5892 5891 5891 5891 5890 5889 5888 5888
5925 5923 5921 5920 5918 5916 5914 5912 5910 5908 5906 5904 5903 5901 5900 5899 5898 5897 5896 5896 5896 5896 5895 5895 5895 5894 5894 5894 5894 5893 5892 5892 5891 5890 5889 5888 5887 5887 5886 5886 5885 5884 5883
5924 5922 5921 5919 5917 5915 5913 5911 5909 5907 5905 5903 5902 5900 5899 5897 5897 5896 5895 5895 5894 5894 5894 5893 5893 5892 5892 5891 5891 5890 5889 5888 5887 5886 5885 5884 5883 5882 5882 5881 5880 5879 5878
5923 5921 5919 5918 5916 5914 5912 5910 5908 5906 5903 5902 5900 5899 5897 5896 5895 5894 5894 5893 5892 5892 5891 5891 5891 5890 5889 5888 5887 5886 5886 5885 5884 5882 5881 5880 5879 5878 5877 5876 5875 5874 5873
5921 5920 5918 5916 5915 5913 5911 5909 5907 5905 5902 5900 5898 5897 5896 5895 5894 5893 5892 5891 5890 5890 5889 5889 5888 5887 5886 5885 5884 5883 5882 5881 5880 5879 5877 5876 5875 5873 5872 5871 5870 5869 5868
5920 5918 5917 5915 5914 5912 5910 5908 5906 5904 5901 5899 5897 5896 5894 5893 5892 5891 5890 5889 5888 5888 5887 5886 5885 5884 5883 5882 5881 5880 5879 5877 5876 5874 5873 5872 5870 5869 5868 5866 5865 5864 5863
5918 5917 5915 5914 5913 5911 5910 5908 5905 5903 5900 5898 5896 5895 5893 5892 5890 5889 5888 5887 5886 5885 5884 5883 5882 5881 5880 5879 5878 5876 5875 5873 5872 5870 5868 5867 5865 5864 5862 5861 5859 5858 5857
5915 5915 5914 5912 5911 5909 5908 5906 5904 5901 5899 5897 5895 5893 5892 5890 5889 5887 5886 5885 5883 5882 5881 5880 5879 5878 5877 5875 5874 5872 5871 5869 5867 5866 5864 5862 5860 5858 5856 5855 5853 5852 5850
5913 5912 5911 5910 5908 5907 5905 5904 5901 5899 5898 5896 5894 5892 5890 5888 5887 5885 5884 5883 5882 5880 5879 5878 5876 5875 5873 5872 5870 5868 5866 5865 5863 5861 5859 5857 5855 5853 5851 5849 5848 5846 5844
5910 5910 5909 5908 5906 5905 5903 5901 5900 5897 5896 5894 5892 5890 5888 5887 5885 5883 5882 5881 5879 5878 5876 5875 5873 5871 5870 5868 5866 5864 5862 5860 5858 5855 5853 5851 5849 5847 5845 5843 5841 5840 5838
5907 5907 5906 5905 5904 5903 5901 5899 5898 5896 5894 5892 5890 5888 5886 5885 5883 5882 5880 5878 5877 5875 5873 5871 5870 5868 5866 5864 5862 5859 5857 5855 5852 5850 5848 5846 5844 5842 5840 5837 5835 5834 5832
5904 5904 5903 5902 5901 5900 5899 5897 5896 5894 5892 5890 5889 5887 5885 5883 5881 5879 5878 5876 5874 5872 5870 5868 5866 5864 5862 5860 5857 5855 5852 5850 5847 5845 5843 5841 5838 5836 5833 5831 5829 5827 5825
5901 5900 5899 5898 5898 5897 5896 5895 5893 5892 5890 5888 5887 5885 5883 5881 5879 5877 5875 5873 5871 5869 5867 5865 5863 5860 5858 5855 5853 5850 5848 5845 5843 5840 5838 5835 5833 5830 5828 5825 5823 5820 5818
5896 5896 5895 5894 5894 5893 5892 5891 5890 5889 5887 5886 5884 5882 5880 5878 5876 5874 5872 5870 5867 5865 5863 5861 5859 5857 5854 5851 5849 5846 5843 5840 5838 5835 5832 5830 5827 5824 5822 5819 5817 5814 5812
5892 5892 5891 5891 5890 5889 5889 5888 5887 5886 5884 5882 5881 5879 5877 5875 5873 5871 5869 5866 5864 5862 5859 5857 5855 5853 5850 5847 5845 5842 5839 5836 5833 5830 5827 5824 5822 5819 5816 5814 5811 5808 5805
5887 5887 5886 5886 5885 5885 5884 5884 5883 5882 5880 5879 5877 5875 5873 5871 5869 5867 5865 5863 5861 5858 5856 5853 5851 5848 5846 5843 5840 5837 5834 5831 5828 5825 5822 5819 5816 5813 5810 5808 5805 5802 5799
5883 5883 5883 5882 5882 5882 5881 5880 5879 5878 5876 5875 5873 5871 5869 5868 5866 5864 5861 5859 5857 5854 5852 5850 5847 5844 5841 5839 5836 5833 5830 5826 5823 5820 5817 5814 5811 5808 5805 5802 5799 5796 5793
5878 5878 5878 5878 5878 5877 5877 5876 5875 5873 5872 5871 5869 5867 5865 5863 5861 5859 5857 5855 5853 5850 5848 5845 5843 5840 5837 5834 5831 5828 5825 5822 5818 5815 5812 5808 5805 5802 5799 5796 5793 5790 5787
5872 5873 5873 5873 5872 5872 5871 5871 5870 5869 5867 5866 5864 5862 5860 5859 5857 5855 5853 5850 5848 5846 5843 5841 5838 5835 5832 5829 5826 5823 5820 5816 5813 5810 5807 5803 5800 5797 5794 5790 5787 5784 5780
5866 5867 5867 5867 5866 5866 5865 5865 5864 5863 5862 5860 5859 5857 5855 5854 5852 5850 5848 5846 5843 5841 5838 5835 5833 5830 5827 5824 5821 5818 5815 5811 5808 5805 5801 5798 5795 5791 5788 5784 5781 5777 5773
5860 5860 5860 5860 5860 5860 5859 5859 5858 5857 5856 5855 5853 5852 5850 5848 5846 5844 5842 5840 5838 5835 5833 5830 5828 5825 5822 5819 5816 5813 5809 5806 5803 5799 5796 5792 5789 5785 5782 5778 5774 5770 5766
5853 5854 5854 5854 5854 5853 5853 5852 5852 5851 5850 5849 5848 5846 5844 5842 5841 5839 5837 5834 5832 5830 5827 5825 5822 5819 5816 5813 5810 5807 5804 5800 5797 5793 5790 5786 5783 5779 5776 5772 5768 5763 5759
Wind_Speed
9 10 10 10 11 11 10 9 9 8 7 7 6 4 3 3 3 3 4 3 3 3 3 4 4 4 4 4 4 5 5 6 6 7 7 7 7 8 8 8 8 8 8
8 9 9 10 11 10 10 10 9 8 7 7 7 5 4 4 4 5 5 4 4 4 4 4 4 5 5 6 6 6 7 8 8 9 9 9 10 10 10 11 10 10 10
8 9 9 9 10 11 11 10 9 8 7 7 7 6 5 5 5 5 6 5 5 5 5 5 6 7 7 7 7 8 8 9 9 10 10 11 12 12 12 13 13 12 12
9 9 9 10 11 11 11 9 9 9 8 7 8 7 7 6 5 4 5 5 4 4 5 6 6 7 7 8 9 9 10 11 11 12 12 13 13 14 14 15 15 14 15
9 9 9 10 11 11 10 10 10 10 9 8 8 8 7 6 5 4 4 4 3 4 4 5 5 6 6 8 9 10 11 11 12 13 14 14 15 15 14 14 15 16 17
10 9 9 10 10 10 10 10 10 10 9 9 8 8 8 7 5 5 4 5 4 4 4 5 6 6 8 9 10 10 11 12 13 14 15 15 15 16 16 15 16 16 18
10 10 10 10 10 10 10 10 10 10 10 9 9 8 7 7 6 5 5 5 5 5 5 6 7 8 9 10 11 12 12 13 14 14 15 15 15 16 17 17 17 18 19
9 10 9 10 10 10 11 11 10 10 10 9 9 8 7 6 6 5 6 6 6 6 6 7 9 9 10 11 11 12 13 14 14 15 15 16 16 17 17 18 19 19 19
9 10 10 10 10 10 10 11 11 11 10 9 8 8 7 7 7 6 6 6 7 7 7 8 9 10 10 11 11 12 13 14 15 16 16 17 18 18 18 19 19 19 20
9 10 10 10 10 11 11 11 11 10 10 9 9 8 8 8 8 7 8 7 8 8 8 8 9 10 11 12 12 13 13 14 15 16 17 18 18 18 19 19 19 19 20
10 11 10 11 10 10 11 11 11 11 11 10 9 9 8 9 8 8 8 8 8 8 8 9 10 11 11 12 13 14 15 16 16 17 18 19 20 20 20 20 20 21 21
10 10 10 10 10 10 10 11 11 11 11 10 10 10 9 9 8 8 9 9 9 8 9 10 11 12 12 13 14 15 16 17 18 18 19 19 20 20 20 21 21 22 22
10 11 11 11 10 10 10 11 12 11 10 10 11 11 11 10 10 9 10 9 10 10 10 10 11 12 13 14 14 15 16 17 18 19 20 19 20 19 20 21 21 22 23
11 13 13 13 12 11 11 11 12 11 10 11 11 12 12 11 11 10 10 10 10 10 11 11 12 13 14 15 15 15 16 17 18 19 18 19 20 20 20 21 21 22 23
13 14 14 14 13 12 12 11 12 12 11 11 12 12 12 11 11 11 11 10 11 11 12 12 12 13 14 15 15 16 17 18 18 19 19 20 20 21 22 22 22 23 23
15 15 15 15 13 12 12 12 12 12 13 13 12 13 12 12 12 12 12 12 12 12 13 13 13 14 15 15 16 17 18 19 19 20 20 20 21 22 23 23 23 23 23
18 17 16 15 13 12 12 12 12 13 13 13 13 13 13 13 13 13 13 13 13 14 13 14 14 15 15 17 17 18 18 19 19 20 20 21 21 22 22 23 23 23 23
19 18 17 15 14 13 12 12 12 14 14 14 14 14 14 14 14 14 14 14 14 14 14 15 16 16 17 17 17 18 18 18 19 20 20 20 20 21 21 21 22 23 23
20 19 18 17 15 14 13 13 14 15 15 15 16 15 15 15 14 15 15 15 15 15 15 16 17 17 18 17 17 18 19 19 20 20 20 20 21 21 21 21 22 23 23
21 20 17 17 16 15 15 15 16 17 17 16 16 16 16 16 16 16 16 16 16 16 17 17 17 18 18 18 18 18 19 19 20 20 20 21 21 21 21 22 22 23 23
22 21 20 18 17 17 16 16 17 17 17 17 18 18 17 16 17 17 17 17 18 18 18 18 18 18 19 18 18 19 20 20 21 21 21 21 22 22 22 22 23 23 24
22 22 21 20 19 18 18 18 18 19 18 19 19 18 18 18 18 18 18 18 19 19 19 19 19 19 19 19 20 20 21 21 21 21 21 21 22 22 23 23 24 24 25
24 23 22 22 21 20 21 20 20 20 20 20 20 20 20 20 20 19 19 19 20 20 20 19 19 19 19 20 21 21 22 22 22 22 22 22 23 24 24 24 25 26 26
23 23 23 23 22 22 22 21 21 21 21 21 21 21 21 21 21 21 21 20 20 20 20 20 20 20 21 21 22 22 23 23 23 23 23 23 24 25 25 25 26 27 28
24 25 24 24 23 23 23 22 22 21 21 21 22 22 22 22 22 22 21 21 21 22 22 22 22 22 22 23 23 23 23 23 23 23 24 24 25 25 26 26 27 28 29
25 24 24 24 24 24 23 23 23 22 22 22 22 22 22 23 23 22 22 22 23 23 23 24 24 23 23 23 24 24 24 24 24 24 25 25 25 26 27 28 28 29 29
Wind_Direction
13 18 21 22 23 22 19 18 16 15 15 15 15 12 352 330 320 322 306 289 269 253 244 248 231 235 245 253 253 251 258 264 266 267 268 265 266 269 270 274 276 277 275
11 10 14 17 14 15 13 10 9 12 12 12 9 4 347 331 321 309 318 294 265 248 243 251 247 248 251 253 258 259 260 262 268 272 271 265 269 271 269 269 270 272 274
6 11 11 10 9 9 6 3 1 360 2 2 0 354 338 328 324 313 303 299 272 255 254 264 260 256 254 258 262 265 265 265 268 272 271 267 267 270 269 267 266 268 270
10 7 10 9 4 2 1 358 359 359 357 357 355 353 343 334 327 317 303 296 282 263 269 270 264 260 255 261 265 267 270 268 268 270 271 271 270 270 270 269 267 266 269
4 4 360 0 360 360 359 358 357 356 353 351 352 353 347 338 328 318 306 299 292 275 272 274 275 266 265 266 268 272 274 275 274 274 274 275 272 271 270 271 272 270 270
349 347 358 356 356 356 355 354 353 352 349 347 347 347 346 339 330 323 312 300 288 279 278 281 281 281 279 274 271 274 278 279 279 276 276 278 275 272 270 270 270 272 272
347 349 352 356 349 353 355 354 352 351 350 349 347 345 344 339 330 321 311 304 294 285 288 292 285 287 287 282 278 279 280 279 278 279 280 281 282 277 272 272 271 272 273
345 347 357 354 355 354 357 353 350 348 347 345 344 344 341 339 334 329 317 308 304 294 290 293 293 294 296 289 284 280 279 280 281 283 283 284 283 282 277 275 273 273 274
341 347 350 350 351 351 354 353 348 348 347 346 343 343 346 344 338 332 322 308 303 297 292 294 294 294 298 297 293 290 286 285 285 285 284 283 283 283 282 281 279 278 277
339 340 339 339 343 348 351 354 352 350 353 351 348 345 340 338 334 332 328 312 301 297 296 296 296 296 298 295 295 293 293 292 290 289 289 288 289 286 282 282 280 279 279
335 334 331 330 335 340 344 349 354 355 353 351 345 341 338 336 335 335 330 324 312 307 302 302 301 301 301 299 295 293 292 292 291 291 291 290 288 286 282 280 280 279 278
328 324 321 322 329 337 335 337 345 350 350 350 344 341 340 338 335 332 329 326 318 310 305 302 303 303 301 298 296 294 293 292 292 293 292 291 289 287 284 281 280 280 281
316 318 315 320 328 331 332 332 335 343 348 349 344 340 338 334 331 326 325 323 321 317 309 305 304 304 303 301 300 299 299 299 297 295 292 292 291 289 288 287 285 284 285
315 316 317 319 321 323 325 330 336 334 340 342 341 338 338 338 336 331 328 326 324 322 316 310 306 306 304 302 302 304 303 301 299 297 297 296 295 294 293 292 289 289 287
312 313 314 316 314 316 320 324 331 332 333 337 337 336 335 335 333 330 327 324 323 320 318 317 313 309 306 307 305 304 304 303 301 300 299 299 299 298 296 294 291 290 288
304 306 310 312 307 309 315 318 322 327 326 328 330 332 336 335 333 331 326 323 321 319 318 316 316 312 309 309 309 308 306 304 302 301 300 300 300 300 298 296 294 293 292
297 301 306 305 300 302 308 313 317 320 324 325 326 328 330 330 329 327 324 322 320 319 319 317 316 315 312 311 311 311 309 307 306 305 303 302 301 302 302 299 297 297 296
293 297 299 297 295 298 302 308 312 317 319 320 322 324 326 326 326 325 323 320 319 318 317 316 315 315 314 313 314 313 311 310 309 309 307 305 305 303 303 302 301 301 300
287 290 291 290 291 295 301 305 309 312 314 316 317 318 319 320 321 323 322 320 319 319 318 316 316 316 315 314 313 311 308 309 310 310 311 309 308 305 304 303 302 302 301
284 285 283 286 288 292 297 300 304 306 308 310 312 312 312 314 315 317 319 320 320 319 317 316 316 316 316 314 314 313 312 313 312 312 311 310 309 308 307 306 304 302 301
280 283 284 287 289 291 293 296 300 303 305 306 307 308 309 309 312 314 315 316 317 316 314 313 314 314 315 314 315 317 316 316 314 312 312 311 311 311 310 309 306 304 303
274 278 282 284 286 288 290 292 295 299 302 303 304 306 307 308 310 312 312 312 313 313 312 312 313 313 313 315 314 315 317 317 315 315 314 313 312 311 311 309 306 305 304
272 274 278 282 284 286 288 289 291 295 298 300 301 303 304 305 306 307 308 309 311 311 311 312 312 312 313 315 316 317 318 317 316 315 314 313 313 312 310 309 308 307 306
269 272 276 279 282 285 287 288 289 291 293 296 298 300 301 303 304 304 305 305 307 308 309 311 311 312 313 314 316 316 316 315 313 312 313 313 313 313 311 310 310 310 309
272 273 276 278 280 282 285 286 287 289 291 294 296 297 299 301 302 303 304 304 305 306 307 308 309 310 312 313 313 313 313 312 311 312 311 311 312 311 311 311 310 310 310
271 273 274 277 279 282 283 285 286 288 290 291 293 295 297 299 301 301 302 303 303 304 305 305 306 306 308 310 312 312 311 310 310 311 311 311 312 311 311 311 311 311 311